FW3743 Weather Reports


Display with metric or nautical units.
time (UTC)temp
F
wind
direction
speed
MPH
gust
MPH
rain 1hr
in
rain 24hr
in
rain mn
in
humidity
%
barometer
mb
20260905022236 65 0.0 0.0 0.00 0.00 0.00 93 1012.4
20260905021234 65 0.0 0.0 0.00 0.00 0.00 92 1013.9
20260905020237 66 0.0 0.0 0.00 0.00 0.00 92 1013.4
20260905015254 66 0.0 0.0 0.00 0.00 0.00 91 1013.4
20260905014236 67 0.0 0.0 0.00 0.00 0.00 91 1013.4
20260905013234 67 0.0 0.0 0.00 0.00 0.00 91 1013.6
20260905012236 67 0.0 0.0 0.00 0.00 0.00 91 1013.5
20260905011234 66 0.0 0.0 0.00 0.00 0.00 91 1013.8
20260905010236 66 0.0 0.0 0.00 0.00 0.00 91 1013.5
20260905005253 66 0.0 0.0 0.00 0.00 0.00 90 1013.9
20260905004236 67 0.0 0.0 0.00 0.00 0.00 88 1013.4
20260905003234 68 0.0 0.0 0.00 0.00 0.00 87 1013.4
20260905002236 69 0.0 0.0 0.00 0.00 0.00 86 1013.3
20260905001253 69 0.0 0.0 0.00 0.00 0.00 85 1013.5
20260905000237 69 0.0 0.0 0.00 0.00 0.00 83 1013.1
20260904235234 70 0.0 0.0 0.00 0.00 0.00 83 1013.3
20260904234357 70 0.0 0.0 0.00 0.00 0.00 81 1013.1
20260904233233 70 0.0 0.0 0.00 0.00 0.00 80 1013.3
20260904232237 71 0.0 0.0 0.00 0.00 0.00 78 1013.0
20260904231233 71 0.0 0.0 0.00 0.00 0.00 76 1013.1
20260904230237 72 0.0 0.0 0.00 0.00 0.00 75 1012.8
20260904225234 73 0.0 0.0 0.00 0.00 0.00 72 1013.0
20260904224237 75 0.0 0.0 0.00 0.00 0.00 70 1012.9
20260904223233 75 0.0 0.0 0.00 0.00 0.00 69 1013.0
20260904222237 76 6 1.0 5.0 0.00 0.00 0.00 67 1012.7
20260904221233 76 28 0.0 1.0 0.00 0.00 0.00 67 1013.0
20260904220257 75 332 0.0 2.0 0.00 0.00 0.00 67 1012.7
20260904215233 76 339 0.0 1.0 0.00 0.00 0.00 67 1013.2
20260904214237 76 316 1.0 7.0 0.00 0.00 0.00 65 1012.8
20260904213233 76 342 0.0 4.0 0.00 0.00 0.00 66 1012.9
20260904212257 77 359 1.0 7.0 0.00 0.00 0.00 64 1013.0
20260904211254 77 336 1.0 8.0 0.00 0.00 0.00 64 1013.2
20260904210237 76 337 1.0 7.0 0.00 0.00 0.00 63 1013.0
20260904205233 77 337 1.0 7.0 0.00 0.00 0.00 65 1013.4
20260904204237 77 325 0.0 5.0 0.00 0.00 0.00 65 1013.2
20260904203233 77 322 2.0 10.0 0.00 0.00 0.00 66 1013.4
20260904202237 77 4 1.0 5.0 0.00 0.00 0.00 65 1013.4
20260904201233 77 279 3.0 8.0 0.00 0.00 0.00 67 1013.8
20260904200237 76 308 2.0 15.0 0.00 0.00 0.00 66 1013.3
20260904195233 77 337 3.0 14.0 0.00 0.00 0.00 66 1013.7
20260904194237 78 354 2.0 14.0 0.00 0.00 0.00 65 1013.5
20260904193239 76 325 6.0 11.0 0.00 0.00 0.00 66 1013.8
20260904192317 77 326 1.0 10.0 0.00 0.00 0.00 66 1013.6
20260904191233 78 5 1.0 8.0 0.00 0.00 0.00 65 1013.8
20260904190237 78 7 2.0 12.0 0.00 0.00 0.00 65 1013.7
20260904185233 78 290 2.0 8.0 0.00 0.00 0.00 65 1013.9
20260904184257 78 325 3.0 14.0 0.00 0.00 0.00 64 1013.8
20260904183234 76 317 1.0 5.0 0.00 0.00 0.00 64 1014.0
20260904182237 78 278 4.0 11.0 0.00 0.00 0.00 64 1013.9
20260904181233 75 322 2.0 8.0 0.00 0.00 0.00 68 1014.0
20260904180237 77 315 2.0 10.0 0.00 0.00 0.00 67 1014.0
20260904175233 78 325 3.0 10.0 0.00 0.00 0.00 65 1014.3
20260904174237 78 316 3.0 11.0 0.00 0.00 0.00 66 1014.0
20260904173233 79 279 3.0 12.0 0.00 0.00 0.00 65 1014.2
20260904172238 78 2 0.0 7.0 0.00 0.00 0.00 66 1014.1
20260904171233 78 331 2.0 18.0 0.00 0.00 0.00 64 1014.3
20260904170257 78 272 5.0 12.0 0.00 0.00 0.00 65 1014.2
20260904165253 77 142 1.0 7.0 0.00 0.00 0.00 67 1014.5
20260904164318 78 358 0.0 4.0 0.00 0.00 0.00 66 1014.2
20260904163233 78 282 3.0 8.0 0.00 0.00 0.00 66 1014.4
20260904162237 77 318 3.0 7.0 0.00 0.00 0.00 66 1014.4
20260904161233 77 341 3.0 10.0 0.00 0.00 0.00 67 1014.4
20260904160237 77 317 3.0 10.0 0.00 0.00 0.00 65 1014.0
20260904155233 77 320 2.0 11.0 0.00 0.00 0.00 66 1014.7
20260904154237 77 311 2.0 7.0 0.00 0.00 0.00 67 1014.3
20260904153233 77 292 1.0 7.0 0.00 0.00 0.00 68 1014.4
20260904152237 78 314 3.0 11.0 0.00 0.00 0.00 68 1014.2
20260904151233 77 318 0.0 2.0 0.00 0.00 0.00 72 1014.3
20260904150237 76 336 0.0 1.0 0.00 0.00 0.00 75 1014.3
20260904145233 74 356 1.0 4.0 0.00 0.00 0.00 78 1014.5
20260904144237 75 304 1.0 7.0 0.00 0.00 0.00 78 1014.3
20260904143253 76 278 3.0 7.0 0.00 0.00 0.00 77 1014.3
20260904142237 75 275 0.0 5.0 0.00 0.00 0.00 79 1014.2
20260904141234 75 286 0.0 2.0 0.00 0.00 0.00 81 1014.4
20260904140237 73 336 0.0 5.0 0.00 0.00 0.00 86 1014.3
20260904135233 73 300 0.0 1.0 0.00 0.00 0.00 87 1014.6
20260904134237 73 305 0.0 4.0 0.00 0.00 0.00 88 1014.4
20260904133233 72 318 0.0 5.0 0.00 0.00 0.00 90 1014.8
20260904132238 73 348 0.0 5.0 0.00 0.00 0.00 91 1014.8
20260904131233 72 17 0.0 1.0 0.00 0.00 0.00 91 1014.5
20260904130237 72 0 0.0 2.0 0.00 0.00 0.00 91 1014.2
20260904125253 71 0.0 0.0 0.00 0.00 0.00 94 1014.3
20260904124238 70 342 0.0 2.0 0.00 0.00 0.00 95 1014.2
20260904123233 69 0.0 0.0 0.00 0.00 0.00 96 1014.5
20260904122238 69 0.0 0.0 0.00 0.00 0.00 96 1014.5
20260904121233 67 0.0 0.0 0.00 0.00 0.00 97 1014.5
20260904120238 67 0.0 0.0 0.00 0.00 0.00 98 1014.4
20260904115233 66 0.0 0.0 0.00 0.00 0.00 99 1014.5
20260904114239 66 0.0 0.0 0.00 0.00 0.00 98 1014.4
20260904113234 66 0.0 0.0 0.00 0.00 0.00 99 1014.5
20260904112238 66 0.0 0.0 0.00 0.00 0.00 99 1014.2
20260904111233 65 0.0 0.0 0.00 0.00 0.00 99 1014.3
20260904110238 64 0.0 0.0 0.00 0.00 0.00 99 1014.0
20260904105233 64 0.0 0.0 0.00 0.00 0.00 99 1014.1
20260904104238 64 0.0 0.0 0.00 0.00 0.00 99 1013.8
20260904103233 64 0.0 0.0 0.00 0.00 0.00 99 1014.0
20260904102238 64 0.0 0.0 0.00 0.00 0.00 99 1013.7
20260904101234 64 0.0 0.0 0.00 0.00 0.00 99 1013.7
20260904100238 64 0.0 0.0 0.00 0.00 0.00 99 1013.4
20260904095233 64 0.0 0.0 0.00 0.00 0.00 99 1013.7
20260904094238 64 0.0 0.0 0.00 0.00 0.00 99 1013.3
20260904093253 65 0.0 0.0 0.00 0.00 0.00 99 1013.3
20260904092258 65 0.0 0.0 0.00 0.00 0.00 99 1013.3
20260904091234 65 0.0 0.0 0.00 0.00 0.00 99 1013.5
20260904090238 65 0.0 0.0 0.00 0.00 0.00 99 1013.1
20260904085233 66 0.0 0.0 0.00 0.00 0.00 99 1013.0
20260904084258 66 0.0 0.0 0.00 0.00 0.00 99 1013.0
20260904083233 66 0.0 0.0 0.00 0.00 0.00 99 1012.9
20260904082238 66 0.0 0.0 0.00 0.00 0.00 99 1012.6
20260904081233 67 0.0 0.0 0.00 0.00 0.00 99 1013.0
20260904080238 67 0.0 0.0 0.00 0.00 0.00 99 1012.7
20260904075253 67 0.0 0.0 0.00 0.00 0.00 99 1012.6
20260904074238 67 0.0 0.0 0.00 0.00 0.00 99 1012.5
20260904073234 67 0.0 0.0 0.00 0.00 0.00 99 1012.7
20260904072258 67 0.0 0.0 0.00 0.00 0.00 99 1012.4
20260904071233 67 0.0 0.0 0.00 0.00 0.00 99 1012.6
20260904070238 67 0.0 0.0 0.00 0.00 0.00 99 1012.4
20260904065233 66 0.0 0.0 0.00 0.00 0.00 99 1012.8
20260904064238 66 0.0 0.0 0.00 0.00 0.00 99 1012.3
20260904063233 66 0.0 0.0 0.00 0.00 0.00 99 1012.7
20260904062238 66 0.0 0.0 0.00 0.00 0.00 99 1012.6
20260904061253 66 0.0 0.0 0.00 0.00 0.00 99 1012.9
20260904060238 66 0.0 0.0 0.00 0.00 0.00 99 1012.8
20260904055233 67 0.0 0.0 0.00 0.00 0.00 99 1013.0
20260904054238 68 0.0 0.0 0.00 0.00 0.00 99 1013.0
20260904053233 68 0.0 0.0 0.00 0.00 0.00 99 1013.2
20260904052239 68 0.0 0.0 0.00 0.00 0.00 99 1012.9
20260904051233 68 0.0 0.0 0.00 0.00 0.00 99 1013.2
20260904050238 68 0.0 0.0 0.00 0.00 0.00 99 1013.1
20260904045233 68 0.0 0.0 0.00 0.00 0.00 99 1013.2
20260904044258 68 0.0 0.0 0.00 0.00 0.00 99 1013.1
20260904043233 68 0.0 0.0 0.00 0.00 0.00 99 1013.1
20260904042238 69 0.0 0.0 0.00 0.00 0.00 99 1012.8
20260904041233 69 0.0 0.0 0.00 0.00 0.00 99 1013.1
20260904040241 68 0.0 0.0 0.00 0.00 0.00 99 1012.9
20260904035233 68 0.0 0.0 0.00 0.00 0.00 99 1013.0
20260904034233 68 0.0 0.0 0.00 0.00 0.00 99 1012.9
20260904033233 68 0.0 0.0 0.00 0.00 0.00 99 1013.1
20260904032233 68 0.0 0.0 0.00 0.00 0.00 99 1013.0
20260904031233 69 0.0 0.0 0.00 0.00 0.00 99 1013.3
20260904030233 69 0.0 0.0 0.00 0.00 0.00 99 1013.1
20260904025233 69 0.0 0.0 0.00 0.00 0.00 99 1013.2
20260904024233 69 0.0 0.0 0.00 0.00 0.00 99 1012.8
20260904023253 68 0.0 0.0 0.00 0.00 0.00 98 1013.2